Flag Weather past 2 weeks in Alice Springs, Northern Territory, Australia

Now
79 °F

Sunny.


Feels Like: 78 °F
Forecast: 66 / 94 °F
Wind: 8 mph from East

Location: Alice Springs Aerodrome

Current Time: Nov 28, 2014 at 8:43:05 AM

Latest Report: Nov 28, 2014 at 8:00 AM


Visibility: 10 mi

Pressure: 30.01 "Hg

Humidity: 15%

Dew point: 27 °F

Location of Alice SpringsLocation

Historic Weather in Alice Springs — Graph

°F

Alice Springs temperature yesterday

Maximum temperature yesterday: 88 °F (at 5:30 PM)
Minimum temperature yesterday: 68 °F (at 11:30 AM)
Average temperature yesterday: 78 °F

Past Weeks' High & Low Weather Summary

 TemperatureHumidityPressure
High106 °F (Nov 13, 2:00 PM)94% (Nov 15, 10:00 PM)32.81 "Hg (Nov 15, 10:00 PM)
Low57 °F (Nov 17, 5:30 AM)3% (Nov 13, 9:30 AM)29.71 "Hg (Nov 13, 4:30 PM)
Average82 °F35%29.97 "Hg
* Reported Nov 13 7:30 AM — Nov 28 7:30 AM, Alice Springs, Weather by CustomWeather, © 2014

Note: Actual official high and low records may vary slightly from our data, if they occured in-between our weather recording intervals... More about our weather records

Advertising

Alice Springs weather history for previous 24 hours

 ConditionsComfort  
Time TempWeatherWind HumidityBarometerVisibility
7:30 AM
Nov 28
77 °FSunny.7 mph22%29.98 "Hg10 mi
7:00 AM72 °FSunny.No wind36%29.98 "Hg10 mi
6:30 AM64 °FSunny.No wind49%29.98 "Hg10 mi
6:00 AM63 °FSunny.3 mph52%29.98 "Hg10 mi
5:30 AM61 °FSunny.5 mph52%29.98 "HgN/A
4:30 AM63 °FClear.6 mph64%29.98 "HgN/A
4:00 AM63 °FClear.7 mph59%29.98 "HgN/A
3:30 AM63 °FClear.6 mph64%29.98 "HgN/A
3:00 AM63 °FClear.5 mph56%29.98 "HgN/A
2:30 AM64 °FClear.No wind46%29.98 "HgN/A
2:00 AM64 °FClear.No wind49%29.98 "HgN/A
1:30 AM66 °FClear.No wind52%29.98 "HgN/A
1:00 AM66 °FClear.5 mph46%29.98 "HgN/A
12:30 AM66 °FClear.6 mph49%29.98 "HgN/A
12:00 AM68 °FClear.5 mph49%29.98 "HgN/A
11:30 PM
Nov 27
70 °FClear.5 mph40%30.01 "HgN/A
11:00 PM72 °FClear.5 mph38%30.01 "HgN/A
10:30 PM72 °FClear.6 mph41%30.01 "HgN/A
10:00 PM73 °FClear.6 mph41%30.01 "HgN/A
9:30 PM75 °FClear.6 mph36%30.01 "HgN/A
9:00 PM75 °FClear.6 mph39%29.98 "HgN/A
8:30 PM75 °FClear.8 mph36%29.98 "HgN/A
8:00 PM79 °FClear.6 mph32%29.95 "HgN/A
7:30 PM81 °FClear.7 mph28%29.95 "HgN/A
7:00 PM84 °FClear.9 mph23%29.95 "HgN/A
6:30 PM86 °FSunny.8 mph19%29.95 "HgN/A
5:30 PM88 °FSunny.9 mph15%29.95 "Hg10 mi
5:00 PM86 °FSunny.9 mph15%29.95 "Hg10 mi
4:30 PM86 °FSunny.8 mph17%29.95 "Hg10 mi
4:00 PM86 °FPassing clouds.7 mph18%29.95 "HgN/A
3:30 PM86 °FSunny.10 mph15%29.98 "Hg10 mi
3:00 PM84 °FSunny.13 mph15%29.98 "Hg10 mi
2:30 PM82 °FSunny.12 mph16%29.98 "Hg10 mi
2:00 PM82 °FSunny.10 mph15%30.01 "Hg10 mi
1:30 PM81 °FSunny.9 mph17%30.01 "Hg10 mi
1:00 PM77 °FSunny.8 mph24%30.04 "Hg10 mi
12:30 PM75 °FSunny.8 mph29%30.01 "Hg10 mi
12:00 PM73 °FSunny.9 mph38%30.04 "Hg10 mi
11:30 AM68 °FRain. Clear.7 mph56%30.04 "HgN/A
11:00 AM75 °FLight rain. Clear.6 mph25%30.07 "HgN/A
10:30 AM79 °FSunny.7 mph8%30.07 "Hg10 mi
10:00 AM79 °FSunny.8 mph9%30.07 "Hg10 mi
9:30 AM79 °FSunny.8 mph9%30.07 "Hg10 mi
9:00 AM79 °FSunny.8 mph9%30.07 "Hg10 mi
8:30 AM77 °FSunny.9 mph9%30.07 "Hg10 mi
8:00 AM77 °FSunny.7 mph10%30.04 "Hg10 mi
Weather by CustomWeather, © 2014

See weather overviewHow to use our weather pages